Weather in Kuti

Ukraine / Ivano-Frankovsk District     48°15′44″N   25°10′46″E
temp.,
°C
wind,
m/s
gust,
m/s
humid.,
%
clouds,
%
prec.,
mm/h
press.,
hPa
HPBL,
m
13 june, sun
sun1300:00+12sw3391100 0.0 101146
03:00+12ssw3491100 0.0 100968
06:00+12nnw71399100 5.7 1009883
09:00+10nw61397100 17.1 1012976
12:00+13nnw61069100 0.8 10131419
15:00+16nnw811485 0.8 10132101
18:00+14nnw711725 0.3 10141229
21:00+10nw6138596 0.6 10161094
14 june, mon
mon1400:00+10wnw41294100 0.8 10151153
03:00+10nw41098100 6.5 1015999
06:00+10nnw5119897 3.1 1015950
09:00+9nw51098100 7.7 1017988
12:00+9nw4995100 3.0 1018974
15:00+8nw3995100 3.4 1019880
18:00+9nw2692100 0.1 1019456
21:00+10wnw2592100 0.2 1018310
15 june, tue
tue1500:00+9w2595100 0.2 1019240
03:00+10wnw2596100 0.4 1019192
06:00+10wnw2697100 0.3 1019269
09:00+10wnw2698100 1.3 1020407
12:00+11wnw2697100 0.6 1019401
15:00+14wnw3690100 0.6 1018631
18:00+16nw268683 0.3 1017601
21:00+14wnw2496100 0.8 101795
16 june, wed
wed1600:00+13w249692 0.5 101789
03:00+12w24965 0.8 101875
06:00+11wsw2295100 0.0 101833
09:00+15nw258898 0.0 1018433
12:00+19nnw457246 0.5 10181013
15:00+19n457874 1.8 10181046
18:00+18nnw369160 2.9 1018626
21:00+15wnw239538 4.9 101954
17 june, thu
thu1700:00+14w229677 0.4 102030
03:00+14wnw1196100 0.6 102021
06:00+14nw119672 0.1 102027
09:00+16n228711 0.3 1020346
12:00+20nne33666 0.3 10201105
15:00+22nne325515 0.4 10191639
18:00+21ne33605 0.0 10191168
21:00+16nw1186100 0.0 101911